Location: Caltech
(34.1382°N, 118.1253°W)
Time: 00:19:37
(UTC-07:00)

A-11 Canister half - All Passes

Search period start: 21 April 2014 00:00
Search period end: 01 May 2014 00:00
Orbit: 1516 x 1684 km, 47.2° (Epoch: 19 April)

Date Brightness Start Highest point End Pass type
(mag) Time Alt. Az. Time Alt. Az. Time Alt. Az.
21 Apr - 01:29:29 10° NW 01:39:08 49° NNE 01:48:54 10° E visible
21 Apr - 03:34:43 10° NW 03:44:50 76° SW 03:54:56 10° SE visible
21 Apr - 05:41:55 10° W 05:48:45 21° SW 05:55:34 10° SSW visible
21 Apr - 18:48:58 10° SSW 18:57:41 44° SE 19:06:41 10° ENE daylight
21 Apr - 20:52:49 10° WSW 21:02:21 67° NNW 21:12:17 10° NE visible
21 Apr - 22:59:55 10° WNW 23:08:57 39° N 23:18:14 10° ENE visible
22 Apr - 01:06:33 10° NW 01:16:08 48° NNE 01:25:51 10° E visible
22 Apr - 03:11:48 10° NW 03:21:56 80° SW 03:32:04 10° SE visible
22 Apr - 05:18:42 10° WNW 05:25:57 23° SW 05:33:10 10° S visible
22 Apr - 18:26:19 10° SSW 18:34:52 40° SE 18:43:41 10° ENE daylight
22 Apr - 20:29:54 10° WSW 20:39:26 70° NNW 20:49:21 10° NE visible
22 Apr - 22:36:55 10° WNW 22:45:56 40° N 22:55:13 10° ENE visible
23 Apr - 00:43:38 10° NW 00:53:08 46° NNE 01:02:47 10° E visible
23 Apr - 02:48:54 10° NW 02:59:02 84° SW 03:09:12 10° SE visible
23 Apr - 04:55:32 10° WNW 05:03:08 25° SW 05:10:43 10° S visible
23 Apr - 18:03:42 10° SSW 18:12:04 37° SE 18:20:40 10° ENE daylight
23 Apr - 20:07:00 10° WSW 20:16:31 73° NNW 20:26:26 10° NE visible
23 Apr - 22:13:55 10° WNW 22:22:55 40° N 22:32:12 10° ENE visible
24 Apr - 00:20:42 10° NW 00:30:08 45° NNE 00:39:44 10° E visible
24 Apr - 02:25:59 10° NW 02:36:07 88° SW 02:46:19 10° SE visible
24 Apr - 04:32:24 10° WNW 04:40:19 27° SW 04:48:14 10° S visible
24 Apr - 17:41:07 10° S 17:49:16 35° SE 17:57:38 10° ENE daylight
24 Apr - 19:44:06 10° WSW 19:53:36 77° NNW 20:03:31 10° NE visible
24 Apr - 21:50:54 10° WNW 21:59:54 41° N 22:09:12 10° ENE visible
24 Apr - 23:57:46 10° NW 00:07:08 44° NNE 00:16:40 10° E visible
25 Apr - 02:03:05 10° NW 02:13:13 88° NE 02:23:25 10° SE visible
25 Apr - 04:09:17 10° WNW 04:17:29 29° SW 04:25:42 10° S visible
25 Apr - 17:18:33 10° S 17:26:28 32° SE 17:34:35 10° ENE daylight
25 Apr - 19:21:14 10° WSW 19:30:42 80° NW 19:40:35 10° NE daylight
25 Apr - 21:27:54 10° W 21:36:54 41° NNW 21:46:12 10° ENE visible
25 Apr - 23:34:50 10° NW 23:44:07 43° NNE 23:53:36 10° E visible
26 Apr - 01:40:12 10° NW 01:50:18 84° NE 02:00:30 10° SE visible
26 Apr - 03:46:13 10° WNW 03:54:40 31° SW 04:03:08 10° S visible
26 Apr - 16:56:00 10° S 17:03:40 30° SE 17:11:31 10° ENE daylight
26 Apr - 18:58:21 10° SW 19:07:49 84° NW 19:17:40 10° NE daylight
26 Apr - 21:04:54 10° W 21:13:54 42° NNW 21:23:13 10° NE visible
26 Apr - 23:11:54 10° WNW 23:21:07 42° NNE 23:30:32 10° E visible
27 Apr - 01:17:18 10° NW 01:27:22 81° NE 01:37:34 10° ESE visible
27 Apr - 03:23:10 10° WNW 03:31:50 34° SW 03:40:32 10° S visible
27 Apr - 16:33:30 10° S 16:40:53 27° SE 16:48:26 10° ENE daylight
27 Apr - 18:35:30 10° SW 18:44:56 88° NW 18:54:45 10° NE daylight
27 Apr - 20:41:54 10° W 20:50:54 43° NNW 21:00:14 10° NE visible
27 Apr - 22:48:58 10° WNW 22:58:06 41° N 23:07:28 10° E visible
28 Apr - 00:54:25 10° NW 01:04:27 77° NE 01:14:38 10° ESE visible
28 Apr - 03:00:08 10° WNW 03:09:00 37° SW 03:17:55 10° SSE visible
28 Apr - 16:11:02 10° S 16:18:06 25° SE 16:25:19 10° ENE daylight
28 Apr - 18:12:39 10° SW 18:22:03 88° SE 18:31:50 10° NE daylight
28 Apr - 20:18:54 10° W 20:27:55 44° NNW 20:37:16 10° NE visible
28 Apr - 22:26:01 10° WNW 22:35:05 40° N 22:44:23 10° ENE visible
29 Apr - 00:31:31 10° NW 00:41:31 74° NNE 00:51:40 10° ESE visible
29 Apr - 02:37:08 10° WNW 02:46:09 39° SW 02:55:15 10° SSE visible
29 Apr - 15:48:36 10° S 15:55:20 23° SE 16:02:10 10° ENE daylight
29 Apr - 17:49:50 10° SW 17:59:11 84° SE 18:08:55 10° NE daylight
29 Apr - 19:55:55 10° W 20:04:56 45° NNW 20:14:18 10° NE visible
29 Apr - 22:03:05 10° WNW 22:12:04 39° N 22:21:19 10° ENE visible
30 Apr - 00:08:38 10° NW 00:18:35 70° NNE 00:28:42 10° ESE visible
30 Apr - 02:14:08 10° WNW 02:23:18 42° SW 02:32:35 10° SSE visible
30 Apr - 15:26:13 10° SSE 15:32:33 21° SE 15:38:58 10° E daylight
30 Apr - 17:27:01 10° SW 17:36:20 79° SE 17:46:00 10° NE daylight
30 Apr - 19:32:56 10° W 19:41:58 46° NNW 19:51:20 10° NE daylight
30 Apr - 21:40:08 10° WNW 21:49:04 39° N 21:58:15 10° ENE visible
30 Apr - 23:45:45 10° NW 23:55:38 67° NNE 00:00:00 39° E visible
